Location: Recife
(8.0585°S, 34.8848°W)
Time: 11:45:37
(UTC-03:00)

Transit 4A - All Passes

Search period start: 14 April 2026 00:00
Search period end: 24 April 2026 00:00
Orbit: 862 x 979 km, 66.8° (Epoch: 14 April)

Date Brightness Start Highest point End Pass type
(mag) Time Alt. Az. Time Alt. Az. Time Alt. Az.
14 Apr - 00:26:33 10° N 00:32:13 35° ENE 00:37:47 10° SE night (unlit)
14 Apr - 02:13:44 10° WNW 02:18:19 21° WSW 02:22:51 10° SSW night (unlit)
14 Apr - 11:34:25 10° SSE 11:38:41 21° ESE 11:42:58 10° ENE daylight
14 Apr - 13:19:45 10° SW 13:24:44 30° WNW 13:29:48 10° NNW daylight
15 Apr - 00:34:41 10° N 00:40:54 59° ENE 00:46:58 10° SSE night (unlit)
15 Apr - 02:24:50 10° W 02:27:07 12° WSW 02:29:23 10° SW night (unlit)
15 Apr - 11:42:10 10° S 11:47:25 35° ESE 11:52:43 10° NE daylight
15 Apr - 13:29:41 10° WSW 13:33:24 17° WNW 13:37:09 10° NNW daylight
16 Apr - 00:43:14 10° NNW 00:49:34 85° WSW 00:55:47 10° SSE night (unlit)
16 Apr - 11:50:24 10° S 11:56:08 61° ESE 12:01:55 10° NNE daylight
16 Apr - 23:09:16 10° NE 23:12:17 14° ENE 23:15:16 10° E night (unlit)
17 Apr - 00:52:11 10° NW 00:58:16 51° WSW 01:04:15 10° S night (unlit)
17 Apr - 11:59:00 10° SSW 12:04:48 79° WNW 12:10:42 10° NNE daylight
17 Apr - 23:16:03 10° NNE 23:20:58 24° ENE 23:25:48 10° ESE night (unlit)
18 Apr - 01:01:33 10° NW 01:06:59 31° WSW 01:12:21 10° S night (unlit)
18 Apr - 10:24:31 10° SE 10:27:20 14° ESE 10:30:10 10° E daylight
18 Apr - 12:07:58 10° SW 12:13:28 45° WNW 12:19:04 10° N daylight
18 Apr - 23:23:48 10° N 23:29:38 40° ENE 23:35:21 10° SE night (unlit)
19 Apr - 01:11:35 10° WNW 01:15:45 18° WSW 01:19:53 10° SSW night (unlit)
19 Apr - 10:31:32 10° SSE 10:36:07 24° ESE 10:40:43 10° ENE daylight
19 Apr - 12:17:22 10° SW 12:22:08 26° WNW 12:26:58 10° NNW daylight
19 Apr - 23:32:03 10° N 23:38:19 67° ENE 23:44:26 10° SSE night (unlit)
20 Apr - 01:23:52 10° WSW 01:24:34 10° WSW 01:25:16 10° WSW night (unlit)
20 Apr - 10:39:25 10° S 10:44:50 40° ESE 10:50:19 10° NE daylight
20 Apr - 12:27:33 10° WSW 12:30:48 15° WNW 12:34:04 10° NW daylight
20 Apr - 23:40:42 10° NNW 23:47:00 75° WSW 23:53:10 10° SSE night (unlit)
21 Apr - 10:47:45 10° SSW 10:53:32 70° ESE 10:59:24 10° NNE daylight
21 Apr - 22:06:05 10° NE 22:09:42 16° ENE 22:13:16 10° ESE night (unlit)
21 Apr - 23:49:44 10° NW 23:55:42 45° WSW 00:01:33 10° S night (unlit)
22 Apr - 10:56:26 10° SSW 11:02:12 69° WNW 11:08:04 10° NNE daylight
22 Apr - 22:13:12 10° NNE 22:18:23 27° ENE 22:23:28 10° SE night (unlit)
22 Apr - 23:59:14 10° NW 00:04:26 27° WSW 00:09:33 10° SSW night (unlit)
23 Apr - 09:21:21 10° SSE 09:24:46 16° ESE 09:28:11 10° ENE daylight
23 Apr - 11:05:29 10° SW 11:10:52 40° WNW 11:16:21 10° N daylight
23 Apr - 22:21:06 10° N 22:27:03 45° ENE 22:32:53 10° SE night (unlit)
